Temperature
6 6 5 5 5 5 5 5 5 4 4 5 5 5 5 4 4 4 4 4 4 4 4 4 4 4 4 3 3 3 3 3 3 3 3 3 3 3
5 5 5 5 5 5 5 5 4 4 4 4 4 4 4 4 4 4 4 4 4 3 3 3 3 3 3 3 3 3 2 2 2 2 2 2 2 2
5 5 5 4 5 4 4 4 4 4 4 4 4 4 3 4 4 3 3 3 3 3 3 3 3 3 2 2 2 2 2 2 2 1 1 1 2 2
4 4 4 4 4 4 4 4 4 4 3 3 3 3 3 3 3 3 3 3 2 2 2 2 2 2 2 2 1 1 1 1 1 1 1 1 1 1
4 4 4 4 4 4 4 3 3 3 3 3 2 2 2 2 2 2 2 2 2 2 2 1 1 1 1 1 1 1 1 1 1 1 1 1 1 1
4 4 4 3 3 3 3 3 3 3 2 2 2 2 2 2 1 1 1 1 1 1 1 1 1 1 1 1 1 1 0 0 0 0 0 0 0 0
3 3 3 3 3 3 3 2 2 2 2 2 1 1 1 1 1 1 1 1 1 1 1 1 1 1 0 0 0 0 0 -0 -0 -0 -0 -0 -0 -0
3 3 3 2 2 2 2 2 2 2 1 1 1 1 1 1 0 0 0 -0 0 0 0 0 0 0 0 0 -0 -0 -0 -1 -1 -1 -1 -1 -1 -1
3 3 2 2 2 2 2 2 2 1 1 1 1 1 1 0 0 -0 -0 -0 -0 -0 -0 -0 -0 -0 -0 -0 -1 -1 -1 -1 -1 -1 -1 -1 -1 -1
2 2 2 2 2 2 1 1 1 1 1 0 0 0 -0 -0 -0 -0 -1 -1 -1 -1 -1 -1 -1 -1 -1 -1 -1 -1 -1 -1 -1 -1 -1 -1 -1 -1
2 1 1 1 1 1 1 1 1 1 0 -0 -0 -0 -0 -1 -1 -1 -1 -1 -1 -1 -1 -2 -1 -1 -1 -1 -1 -1 -2 -2 -2 -2 -2 -2 -2 -2
1 1 1 1 1 1 1 1 0 0 -0 -0 -0 -1 -1 -1 -1 -1 -1 -2 -2 -2 -2 -2 -2 -2 -2 -2 -2 -2 -2 -2 -2 -2 -2 -2 -2 -3
0 0 0 0 0 0 0 0 -0 -0 -1 -1 -1 -1 -1 -1 -1 -2 -2 -2 -3 -3 -3 -3 -3 -3 -3 -3 -2 -2 -2 -2 -2 -2 -2 -3 -3 -3
-0 -0 -0 -0 -0 -0 -0 -1 -1 -1 -1 -1 -1 -1 -2 -2 -2 -2 -2 -3 -3 -3 -3 -3 -4 -4 -4 -4 -4 -3 -3 -3 -3 -3 -3 -3 -3 -3
-1 -1 -1 -1 -1 -1 -1 -1 -1 -1 -2 -2 -2 -2 -2 -2 -2 -2 -3 -3 -3 -3 -3 -3 -4 -4 -4 -4 -4 -4 -3 -3 -3 -3 -3 -3 -3 -3
-1 -1 -1 -1 -1 -1 -1 -2 -2 -2 -2 -2 -2 -2 -3 -3 -3 -3 -3 -3 -4 -3 -3 -4 -4 -4 -4 -4 -4 -4 -4 -4 -4 -4 -4 -4 -4 -4
-2 -2 -2 -2 -2 -2 -2 -2 -2 -2 -3 -3 -3 -3 -3 -4 -4 -4 -4 -4 -4 -4 -4 -4 -4 -4 -4 -4 -4 -4 -4 -4 -4 -4 -4 -4 -4 -4
-2 -2 -2 -2 -2 -2 -3 -3 -3 -3 -3 -3 -3 -4 -4 -4 -4 -4 -5 -5 -5 -5 -5 -5 -5 -4 -4 -4 -4 -4 -4 -4 -4 -5 -5 -5 -5 -4
-3 -3 -3 -3 -3 -3 -3 -3 -3 -3 -4 -4 -4 -4 -4 -5 -5 -5 -5 -5 -5 -5 -5 -5 -5 -5 -5 -5 -5 -5 -5 -5 -5 -5 -5 -5 -5 -5
-3 -3 -3 -3 -4 -4 -4 -4 -4 -4 -4 -4 -4 -4 -5 -5 -5 -5 -5 -5 -6 -6 -5 -5 -5 -5 -6 -6 -6 -5 -5 -5 -6 -6 -5 -5 -5 -5
-4 -4 -4 -4 -4 -4 -4 -4 -4 -4 -4 -4 -4 -5 -5 -5 -5 -5 -6 -6 -6 -6 -6 -5 -5 -6 -6 -6 -6 -5 -5 -5 -6 -6 -6 -6 -6 -5
-4 -4 -5 -5 -5 -5 -5 -5 -5 -5 -5 -5 -5 -5 -5 -5 -6 -6 -6 -6 -6 -6 -6 -6 -6 -6 -6 -6 -6 -6 -5 -5 -6 -6 -6 -6 -7 -7
-5 -5 -5 -5 -5 -5 -5 -5 -5 -5 -5 -5 -5 -5 -5 -6 -6 -6 -6 -6 -6 -6 -6 -6 -6 -6 -6 -6 -6 -6 -6 -6 -6 -6 -6 -6 -6 -7
Wind_Speed
4 3 2 2 2 2 2 3 3 3 3 3 1 2 2 3 4 4 4 5 5 5 6 6 7 7 7 8 9 9 10 10 11 12 12 13 13 13
3 4 3 2 2 2 2 2 2 3 3 3 2 1 2 3 5 5 5 6 6 7 7 7 7 7 7 8 9 10 11 11 12 12 13 13 13 14
4 4 4 3 3 3 2 2 2 2 3 3 2 1 2 2 3 4 5 5 6 7 7 8 8 8 9 9 10 10 11 11 12 12 13 14 14 14
5 5 4 3 3 3 3 3 3 3 3 3 2 2 3 3 2 3 3 4 5 7 8 8 8 9 9 10 10 11 11 12 12 12 13 14 14 15
6 6 5 5 4 3 3 3 3 3 2 3 3 2 2 2 2 3 3 3 5 7 8 8 9 10 10 11 11 11 12 12 12 13 13 14 14 15
4 5 5 6 6 5 4 4 3 3 2 2 2 2 2 2 1 2 3 3 3 5 7 8 10 11 11 12 12 12 12 12 13 13 13 14 14 16
4 4 4 5 6 5 4 4 4 4 3 3 3 2 2 2 3 3 3 3 4 3 3 5 6 7 9 11 11 12 13 13 13 14 14 15 16 16
4 4 4 5 5 5 5 4 4 4 4 4 3 4 4 4 3 3 3 3 4 2 2 5 4 5 7 8 11 12 13 14 14 15 15 16 16 16
4 4 4 4 5 4 4 3 3 5 5 5 5 5 5 5 4 4 4 4 5 4 3 6 4 5 7 9 12 13 13 14 15 15 16 16 17 17
3 4 4 4 4 4 3 3 2 3 4 3 4 4 4 3 4 4 4 4 4 3 2 5 5 5 7 8 12 13 13 14 15 15 15 16 16 17
2 2 3 4 4 5 4 4 3 3 3 3 3 3 5 5 4 1 2 3 5 4 2 3 4 5 6 5 9 11 12 14 14 15 15 16 16 16
1 2 3 4 4 4 3 4 4 3 2 2 2 2 3 3 3 2 3 3 4 4 2 2 4 4 4 3 4 7 9 12 14 15 16 16 16 12
2 2 2 3 4 4 3 3 4 3 2 2 2 1 1 1 1 1 1 2 3 4 3 2 3 3 4 5 4 5 6 8 10 12 13 14 14 11
3 2 2 3 2 2 3 3 3 1 1 1 1 1 1 1 1 1 2 2 3 5 6 4 3 4 5 7 6 4 5 7 7 7 9 12 13 13
2 3 2 2 1 1 2 1 1 1 1 1 2 2 1 1 1 1 2 2 4 5 6 6 4 4 4 6 6 6 6 5 5 5 6 7 7 8
1 2 2 2 1 1 1 0 1 1 1 2 2 1 0 0 1 2 2 2 3 4 5 6 5 4 5 6 6 7 6 4 5 5 6 6 8 8
2 2 1 1 1 1 0 0 0 1 0 1 1 1 1 1 2 2 2 2 3 4 5 4 5 5 6 6 6 6 6 6 5 6 6 7 7 7
3 2 2 2 2 2 1 1 1 1 1 1 1 1 2 2 2 2 2 2 3 4 4 4 4 5 4 4 6 6 5 5 6 6 5 7 8 7
2 2 2 2 2 2 1 1 2 2 1 2 2 2 2 2 2 3 3 3 3 4 4 3 3 3 5 6 4 5 4 6 6 6 5 6 8 9
1 2 2 2 2 2 2 2 2 2 2 2 2 2 2 2 3 3 3 3 4 4 4 3 3 3 4 5 6 6 8 6 5 6 7 6 7 10
1 1 2 2 2 2 2 2 2 2 2 2 2 3 3 3 3 3 3 4 4 4 5 5 4 6 4 3 5 6 5 8 8 6 6 7 7 6
2 2 2 2 2 2 2 2 3 3 3 3 3 3 3 3 3 3 3 3 4 4 5 5 4 3 2 4 6 7 8 8 10 11 10 9 6 5
2 2 2 2 2 2 2 3 3 3 3 3 3 3 3 3 3 3 3 3 3 4 4 4 4 3 4 4 5 6 8 8 6 6 6 10 12 14
Wind_Direction
175 171 169 174 163 157 152 162 170 201 231 228 221 222 228 239 240 238 245 254 264 272 282 292 297 299 299 300 301 302 302 303 304 303 303 303 303 304
172 171 177 179 172 168 170 185 184 192 224 223 222 243 234 252 248 246 248 258 264 268 275 279 283 289 292 292 293 296 296 296 299 299 299 300 301 302
178 177 184 180 174 181 181 188 195 187 219 249 245 253 242 249 258 257 257 254 261 266 273 277 279 283 288 290 289 292 294 295 296 297 298 298 299 300
183 180 188 182 180 188 192 200 203 200 201 230 249 256 253 241 250 256 270 271 269 273 275 277 279 282 286 287 288 289 290 291 293 295 296 297 297 298
184 185 188 179 191 195 197 203 207 211 198 211 244 255 267 254 270 275 271 273 276 275 276 277 278 282 286 288 288 287 287 288 291 293 294 295 296 297
185 185 188 188 194 193 197 201 198 195 191 201 233 258 264 266 257 266 276 264 272 281 277 282 280 281 283 284 283 283 284 287 290 292 292 293 295 296
183 183 190 191 196 199 201 203 198 199 201 207 230 252 258 253 249 248 264 278 277 264 268 272 275 273 274 277 279 280 282 286 289 291 292 292 293 293
185 185 190 192 193 196 204 211 211 208 212 219 236 238 247 249 249 257 264 287 283 262 266 280 267 270 271 273 279 284 285 287 289 290 292 292 293 293
187 186 190 194 191 188 198 209 228 239 235 227 228 236 240 237 234 251 251 262 274 274 280 281 274 271 275 281 282 283 285 287 291 293 294 294 293 293
188 192 193 190 193 188 181 190 217 236 241 235 228 236 240 233 226 241 248 272 288 274 261 278 287 285 290 282 280 281 284 289 292 293 295 295 295 294
189 198 194 187 189 186 184 193 210 235 244 238 254 263 265 257 243 243 253 275 288 284 265 268 288 299 292 281 277 283 288 292 293 294 296 296 297 298
177 194 197 193 194 197 200 194 206 227 218 233 260 274 275 259 248 226 225 254 280 281 273 281 294 316 305 282 270 283 291 293 295 295 296 297 300 301
189 200 203 196 206 211 218 209 214 220 204 210 228 247 279 285 310 306 260 246 261 271 271 291 290 295 283 294 298 283 287 294 297 295 295 297 300 301
196 196 188 190 207 215 216 216 212 198 171 198 230 247 254 275 307 327 311 300 276 269 271 273 273 280 290 293 294 295 296 293 291 291 294 299 300 298
187 177 182 189 198 195 210 226 188 166 169 199 225 245 254 263 324 326 332 329 313 298 285 275 262 275 275 280 285 290 301 298 290 295 302 302 299 300
154 164 171 173 162 163 156 147 156 178 188 204 216 229 268 280 294 295 295 310 312 309 311 295 279 268 277 276 276 285 288 287 299 304 307 303 300 291
156 133 128 138 129 118 122 130 131 132 193 202 195 226 283 291 296 295 284 298 294 298 309 319 314 294 265 264 272 274 282 287 290 303 310 307 298 292
151 157 165 166 175 178 182 188 188 196 205 211 213 230 251 265 284 293 287 276 280 289 294 304 319 323 316 284 245 258 279 287 296 299 297 301 299 299
157 164 170 179 193 199 204 213 222 217 211 210 221 232 243 253 261 271 276 279 282 286 289 293 300 303 311 310 294 248 271 292 299 300 294 293 292 297
169 179 191 200 208 215 221 226 227 218 214 222 230 233 237 247 257 262 265 272 284 291 294 288 280 276 279 287 294 295 281 273 288 295 299 298 289 292
214 213 212 213 220 223 223 224 226 230 229 231 232 233 234 242 255 261 267 281 287 285 286 287 281 291 282 286 290 292 290 287 287 287 295 302 304 304
230 224 225 223 219 218 220 224 230 232 231 232 235 235 235 238 249 257 265 274 278 280 286 291 294 297 287 281 288 293 300 308 310 303 291 284 288 293
243 234 230 226 226 224 223 226 232 238 235 233 232 235 235 241 246 250 258 266 276 285 292 299 304 301 290 280 284 291 298 306 310 313 305 303 295 288
Height
1510 1511 1513 1515 1516 1518 1519 1520 1521 1520 1520 1521 1522 1522 1523 1523 1523 1523 1523 1523 1523 1522 1522 1521 1521 1520 1519 1518 1518 1517 1516 1515 1514 1512 1511 1510 1509 1508
1506 1508 1509 1511 1512 1514 1515 1516 1517 1518 1517 1517 1518 1519 1519 1519 1519 1519 1519 1518 1518 1518 1517 1517 1516 1515 1514 1514 1513 1512 1511 1510 1509 1507 1506 1505 1504 1503
1502 1503 1505 1507 1508 1510 1511 1512 1512 1513 1513 1513 1514 1514 1515 1514 1514 1514 1514 1514 1513 1513 1513 1512 1511 1510 1509 1509 1508 1507 1506 1505 1504 1502 1501 1500 1498 1497
1497 1499 1501 1503 1504 1505 1506 1507 1508 1509 1509 1508 1509 1509 1510 1510 1510 1510 1509 1509 1509 1508 1508 1507 1506 1506 1505 1504 1503 1502 1501 1500 1499 1497 1496 1495 1493 1492
1493 1495 1497 1498 1499 1501 1502 1503 1504 1505 1505 1505 1504 1505 1505 1506 1505 1505 1505 1504 1504 1504 1503 1502 1502 1501 1500 1499 1498 1497 1496 1495 1494 1492 1491 1489 1488 1486
1489 1491 1492 1494 1495 1496 1498 1499 1499 1500 1501 1501 1500 1501 1501 1501 1501 1500 1499 1499 1499 1499 1498 1498 1497 1496 1495 1494 1493 1492 1491 1490 1488 1487 1485 1483 1482 1480
1485 1487 1488 1490 1491 1492 1494 1494 1495 1496 1496 1496 1496 1496 1496 1496 1496 1496 1495 1494 1494 1494 1493 1492 1491 1490 1489 1489 1488 1487 1485 1484 1483 1481 1479 1478 1476 1474
1481 1482 1484 1486 1487 1488 1489 1490 1491 1492 1492 1492 1492 1492 1492 1492 1492 1491 1491 1490 1488 1489 1488 1486 1486 1485 1484 1483 1482 1481 1480 1478 1477 1475 1474 1472 1470 1468
1477 1478 1480 1481 1482 1484 1485 1486 1486 1487 1488 1489 1488 1488 1488 1488 1488 1487 1486 1485 1484 1484 1483 1480 1480 1479 1479 1478 1477 1476 1474 1473 1471 1469 1467 1465 1463 1461
1473 1474 1476 1477 1478 1479 1480 1481 1481 1482 1483 1484 1484 1484 1484 1484 1484 1483 1482 1481 1480 1479 1479 1476 1474 1473 1472 1471 1471 1470 1468 1467 1465 1463 1461 1459 1457 1455
1470 1471 1472 1473 1474 1475 1476 1476 1477 1477 1479 1479 1479 1479 1479 1480 1479 1479 1478 1477 1474 1473 1474 1472 1469 1468 1466 1465 1465 1464 1462 1461 1459 1457 1455 1453 1451 1448
1466 1467 1468 1469 1470 1471 1471 1472 1472 1473 1474 1474 1475 1475 1475 1475 1475 1475 1474 1473 1471 1469 1468 1468 1465 1464 1460 1458 1459 1458 1456 1455 1453 1451 1449 1447 1445 1442
1462 1463 1464 1465 1466 1467 1468 1468 1468 1469 1470 1470 1470 1471 1471 1470 1470 1470 1470 1469 1468 1466 1465 1464 1461 1460 1459 1454 1452 1452 1451 1449 1446 1445 1443 1441 1439 1437
1458 1459 1460 1462 1462 1463 1464 1464 1465 1466 1466 1466 1466 1466 1466 1466 1466 1466 1465 1465 1464 1463 1461 1460 1458 1456 1454 1451 1448 1446 1445 1443 1441 1438 1437 1435 1433 1431
1455 1456 1457 1458 1459 1459 1460 1461 1461 1462 1462 1463 1463 1462 1463 1462 1462 1461 1461 1460 1459 1458 1457 1456 1454 1453 1451 1448 1444 1442 1440 1438 1436 1434 1431 1429 1427 1424
1452 1453 1454 1455 1456 1456 1457 1457 1458 1458 1459 1459 1459 1459 1459 1458 1458 1457 1456 1455 1454 1453 1453 1452 1450 1449 1446 1444 1441 1438 1437 1434 1432 1430 1427 1424 1422 1420
1449 1450 1451 1452 1452 1453 1453 1454 1455 1455 1456 1456 1456 1455 1455 1455 1454 1453 1452 1451 1450 1449 1448 1447 1446 1445 1443 1441 1438 1436 1433 1431 1429 1426 1423 1419 1417 1415
1447 1447 1447 1448 1449 1450 1450 1451 1452 1452 1452 1453 1452 1452 1452 1451 1450 1450 1449 1448 1447 1446 1444 1443 1442 1440 1439 1436 1436 1432 1430 1427 1425 1422 1419 1415 1412 1410
1444 1444 1445 1445 1446 1447 1447 1448 1448 1449 1449 1449 1449 1449 1448 1448 1447 1446 1445 1445 1444 1442 1441 1440 1439 1437 1435 1432 1430 1430 1427 1424 1421 1418 1415 1412 1408 1405
1441 1441 1442 1443 1443 1444 1444 1445 1445 1446 1446 1446 1446 1445 1445 1444 1444 1443 1442 1442 1441 1439 1438 1437 1436 1435 1433 1431 1427 1425 1425 1421 1418 1414 1411 1408 1405 1402
1438 1439 1439 1440 1440 1441 1441 1441 1442 1442 1442 1442 1442 1442 1442 1441 1441 1440 1440 1439 1438 1436 1435 1434 1433 1432 1430 1428 1425 1421 1420 1419 1416 1412 1408 1405 1400 1397
1436 1436 1436 1437 1437 1438 1438 1438 1438 1438 1438 1439 1439 1439 1438 1438 1438 1437 1436 1436 1435 1434 1432 1431 1430 1428 1427 1424 1421 1418 1416 1414 1412 1410 1407 1403 1399 1394
1433 1433 1433 1433 1434 1434 1434 1434 1435 1435 1435 1435 1435 1435 1435 1435 1435 1434 1433 1433 1432 1430 1429 1427 1426 1425 1423 1421 1418 1415 1412 1410 1407 1404 1402 1400 1398 1394